Tracking 25195 objects as of 20-Jan-2022
HD Live streaming from Space Station
objects crossing your sky now

CZ-2C R/B

Track CZ-2C R/B now!
10-day predictions


NORAD ID: 43521
Int'l Code: 2018-054D
Perigee: 480.8 km
Apogee: 592.8 km
Inclination: 35.2 °
Period: 95.2 minutes
Semi major axis: 6907 km
RCS: Unknown
Launch date: June 27, 2018
Source: People's Republic of China (PRC)
Launch site: Xichang Space Center, China (XSC)

Note: This is a ROCKET BODY
aabbcc
Your satellite tracking list
Your tracking list is empty




NASA's NSSDC Master Catalog

Two Line Element Set (TLE):
1 43521U 18054D   22020.49061244  .00003114  00000-0  16502-3 0  9995
2 43521  35.1521 190.6134 0081072 215.5029 144.0271 15.12138452197266
Source of the keplerian elements: AFSPC